Date String (YYYY-MM-DD hh:mm:ss) UTC,Instrument flags,Ambient pressure (hPa),Sample flow (lpm),Bypass flow (lpm),Sample temperature (°C),Ambient temperature (°C),ASC tube jacket temperature (°C),LED temperature (°C),Box temperature (°C),Sample RH (%),Span deviation,Mass concentration (μg/m³),Mass concentration (μg/m³),Mass concentration (μg/m³)
DateTimeUTC,F1_M11,P_M11,Q1_M11,Q2_M11,T1_M11,T2_M11,T3_M11,T4_M11,T5_M11,U1_M11,ZSPAN_M11,X0_M11,X2_M11,X1_M11
2022-02-25 08:00:00,,0827.7,5.00,0.00,22.5,23.0,00.0,31.4,24.4,06.3,0000.4,0017.25,0010.92,0010.21
2022-02-25 08:01:00,,0827.7,5.00,0.00,22.6,22.9,00.0,31.4,24.4,06.3,0000.3,0017.13,0010.85,0010.18
2022-02-25 08:02:00,,0827.7,4.99,0.00,22.5,22.7,00.0,31.4,24.3,06.3,0000.1,0016.97,0010.76,0010.16
2022-02-25 08:03:00,,0827.7,5.01,0.00,22.5,22.4,00.0,31.4,24.2,06.3,0000.3,0016.69,0010.67,0010.09
2022-02-25 08:04:00,,0827.7,5.01,0.00,22.5,22.2,00.0,31.4,24.2,06.3,0000.3,0016.51,0010.61,0010.03
2022-02-25 08:05:00,,0827.7,5.00,0.00,22.4,22.0,00.0,31.4,24.1,06.4,0000.1,0016.58,0010.57,0009.94
2022-02-25 08:06:00,,0827.7,5.00,0.00,22.4,21.8,00.0,31.4,24.0,06.4,-000.5,0016.70,0010.52,0009.87
2022-02-25 08:07:00,,0827.7,4.99,0.00,22.3,21.7,00.0,31.4,24.0,06.4,-000.6,0016.33,0010.43,0009.82
2022-02-25 08:08:00,,0827.7,5.00,0.00,22.3,21.5,00.0,31.4,23.9,06.4,-000.5,0016.26,0010.40,0009.79
2022-02-25 08:09:00,,0827.7,5.00,0.00,22.2,21.5,00.0,31.3,23.9,06.4,-000.0,0016.24,0010.36,0009.74
2022-02-25 08:10:00,,0827.7,5.01,0.00,22.3,21.9,00.0,31.3,24.0,06.4,-000.3,0016.04,0010.34,0009.71
2022-02-25 08:11:00,,0827.7,5.00,0.00,22.4,22.6,00.0,31.4,24.2,06.4,-000.7,0015.25,0010.31,0009.68
2022-02-25 08:12:00,,0827.7,5.00,0.00,22.5,23.0,00.0,31.4,24.4,06.4,-001.0,0015.26,0010.27,0009.64
2022-02-25 08:13:00,,0827.6,5.00,0.00,22.5,22.8,00.0,31.4,24.4,06.3,-001.0,0015.25,0010.25,0009.60
2022-02-25 08:14:00,,0827.6,5.00,0.00,22.5,22.6,00.0,31.4,24.3,06.4,-000.9,0015.28,0010.25,0009.58
2022-02-25 08:15:00,,0827.6,5.01,0.00,22.5,22.3,00.0,31.4,24.2,06.4,-000.6,0015.37,0010.26,0009.59
2022-02-25 08:16:00,,0827.6,5.01,0.00,22.4,22.1,00.0,31.4,24.2,06.4,-000.6,0015.67,0010.25,0009.61
2022-02-25 08:17:00,,0827.6,5.00,0.00,22.4,21.9,00.0,31.4,24.1,06.4,-000.4,0016.10,0010.23,0009.62
2022-02-25 08:18:00,,0827.6,5.00,0.00,22.3,21.7,00.0,31.4,24.0,06.4,-000.5,0016.01,0010.22,0009.62
2022-02-25 08:19:00,,0827.7,5.00,0.00,22.3,21.6,00.0,31.3,24.0,06.4,-000.5,0016.18,0010.19,0009.59
2022-02-25 08:20:00,,0827.6,5.01,0.00,22.2,21.5,00.0,31.3,23.9,06.4,-000.4,0016.63,0010.17,0009.57
2022-02-25 08:21:00,,0827.6,4.99,0.00,22.3,21.9,00.0,31.3,23.9,06.4,-000.3,0016.59,0010.17,0009.58
2022-02-25 08:22:00,,0827.6,5.01,0.00,22.4,22.5,00.0,31.4,24.1,06.4,0000.1,0016.69,0010.16,0009.59
2022-02-25 08:23:00,,0827.6,4.99,0.00,22.5,23.0,00.0,31.4,24.4,06.3,0000.3,0016.66,0010.14,0009.59
2022-02-25 08:24:00,,0827.5,4.99,0.00,22.5,22.9,00.0,31.4,24.4,06.3,0000.6,0016.80,0010.12,0009.59
2022-02-25 08:25:00,,0827.5,4.99,0.00,22.5,22.6,00.0,31.4,24.3,06.3,0000.1,0017.16,0010.09,0009.58
2022-02-25 08:26:00,,0827.5,5.01,0.00,22.5,22.4,00.0,31.4,24.2,06.3,-000.3,0016.81,0010.00,0009.55
2022-02-25 08:27:00,,0827.5,5.00,0.00,22.4,22.1,00.0,31.4,24.1,06.3,-000.6,0016.60,0009.96,0009.51
2022-02-25 08:28:00,,0827.5,5.00,0.00,22.4,21.9,00.0,31.4,24.0,06.3,-000.7,0016.07,0009.97,0009.49
2022-02-25 08:29:00,,0827.6,5.00,0.00,22.3,21.7,00.0,31.4,24.0,06.3,-000.7,0016.23,0009.99,0009.49
2022-02-25 08:30:00,,0827.5,5.00,0.00,22.3,21.5,00.0,31.3,23.9,06.3,-000.9,0016.22,0010.02,0009.49
2022-02-25 08:31:00,,0827.5,5.00,0.00,22.2,21.5,00.0,31.3,23.8,06.4,-001.3,0015.69,0010.01,0009.48
2022-02-25 08:32:00,,0827.5,5.00,0.00,22.3,22.1,00.0,31.4,24.0,06.4,-001.3,0015.68,0009.98,0009.46
2022-02-25 08:33:00,,0827.6,5.00,0.00,22.4,22.8,00.0,31.4,24.2,06.3,-001.5,0015.72,0009.97,0009.41
2022-02-25 08:34:00,,0827.7,5.00,0.00,22.5,23.1,00.0,31.4,24.4,06.3,-001.5,0015.61,0009.94,0009.39
2022-02-25 08:35:00,,0827.7,4.99,0.00,22.5,22.9,00.0,31.4,24.4,06.3,-001.7,0015.64,0009.95,0009.39
2022-02-25 08:36:00,,0827.6,5.02,0.00,22.5,22.6,00.0,31.4,24.3,06.2,-001.2,0015.97,0009.94,0009.39
2022-02-25 08:37:00,,0827.5,4.98,0.00,22.5,22.3,00.0,31.4,24.2,06.2,-000.6,0015.86,0009.93,0009.39
2022-02-25 08:38:00,,0827.5,5.01,0.00,22.4,22.1,00.0,31.4,24.1,06.3,-000.2,0015.70,0009.94,0009.38
2022-02-25 08:39:00,,0827.5,5.01,0.00,22.4,21.9,00.0,31.4,24.0,06.3,0000.1,0015.37,0009.93,0009.37
2022-02-25 08:40:00,,0827.5,5.00,0.00,22.3,21.7,00.0,31.4,24.0,06.3,0000.5,0015.00,0009.90,0009.35
2022-02-25 08:41:00,,0827.6,4.99,0.00,22.3,21.6,00.0,31.3,23.9,06.4,0000.6,0014.89,0009.85,0009.32
2022-02-25 08:42:00,,0827.6,5.00,0.00,22.2,21.5,00.0,31.3,23.9,06.4,0000.7,0014.82,0009.80,0009.29
2022-02-25 08:43:00,,0827.5,5.00,0.00,22.3,21.9,00.0,31.3,23.9,06.2,0000.8,0014.76,0009.77,0009.28
2022-02-25 08:44:00,,0827.5,5.01,0.00,22.4,22.6,00.0,31.4,24.2,06.2,0001.0,0014.66,0009.75,0009.28
2022-02-25 08:45:00,,0827.5,5.00,0.00,22.5,23.3,00.0,31.4,24.4,06.1,0001.3,0014.61,0009.74,0009.28
2022-02-25 08:46:00,,0827.6,4.99,0.00,22.6,23.3,00.0,31.4,24.5,06.1,0001.7,0014.87,0009.77,0009.27
2022-02-25 08:47:00,,0827.6,5.00,0.00,22.6,23.0,00.0,31.4,24.5,06.1,0001.6,0014.31,0009.80,0009.26
2022-02-25 08:48:00,,0827.6,5.01,0.00,22.6,22.6,00.0,31.4,24.3,06.1,0001.3,0014.43,0009.83,0009.25
2022-02-25 08:49:00,,0827.5,4.99,0.00,22.5,22.3,00.0,31.4,24.2,06.1,0001.3,0015.42,0009.86,0009.27
2022-02-25 08:50:00,,0827.5,4.99,0.00,22.4,22.0,00.0,31.4,24.1,06.1,0001.0,0015.43,0009.87,0009.29
2022-02-25 08:51:00,,0827.4,5.00,0.00,22.4,21.8,00.0,31.4,24.0,06.1,0000.7,0015.52,0009.90,0009.32
2022-02-25 08:52:00,,0827.5,5.00,0.00,22.3,21.7,00.0,31.4,24.0,06.1,0000.5,0016.25,0009.95,0009.34
2022-02-25 08:53:00,,0827.5,5.00,0.00,22.3,21.5,00.0,31.4,23.9,06.1,0000.4,0016.30,0009.99,0009.37
2022-02-25 08:54:00,,0827.5,5.02,0.00,22.2,21.4,00.0,31.4,23.8,06.1,0000.2,0016.90,0010.06,0009.39
2022-02-25 08:55:00,,0827.5,4.98,0.00,22.2,21.7,00.0,31.4,23.9,06.1,0000.2,0017.07,0010.10,0009.41
2022-02-25 08:56:00,,0827.5,5.02,0.00,22.3,22.5,00.0,31.4,24.1,06.1,0000.0,0017.22,0010.14,0009.41
2022-02-25 08:57:00,,0827.6,5.00,0.00,22.5,23.2,00.0,31.4,24.4,06.0,-000.3,0016.93,0010.11,0009.42
2022-02-25 08:58:00,,0827.5,5.01,0.00,22.6,23.4,00.0,31.5,24.5,06.0,-000.4,0016.50,0010.07,0009.42
2022-02-25 08:59:00,,0827.5,5.00,0.00,22.6,23.1,00.0,31.5,24.5,06.0,-000.5,0016.40,0010.05,0009.41
